Location: *
(41.7492°S, 135.4150°W)
Time: 21:57:41
(UTC+00:00)

METEOR M2 - Pass Details

Date: 10 July 2022
Orbit: 818 x 827 km, 98.4° (Epoch: 17 August)

Event Time Altitude Azimuth Distance (km) Brightness Sun altitude
Rises 14:28:07 0° 34° (NNE) 3,347 ? -21.6°
Reaches altitude 10° 14:30:32 10° 40° (NE) 2,421 ? -21.2°
Maximum altitude 14:35:36 45° 110° (ESE) 1,127 ? -20.2°
Drops below altitude 10° 14:40:43 10° 181° (S) 2,448 ? -19.3°
Sets 14:43:10 0° 186° (S) 3,388 ? -18.9°
